www.pogodaiklimat.ru

Погода и климат >> Архив погоды >> Мексика >> Pachuca


ПОГОДА в Pachuca

  • Прогноз погоды в Pachuca
  • Монитор погоды в Pachuca
  • Климат города

АРХИВ ПОГОДЫ в Pachuca

Время (UTC), дата Ветер
(напр.,м/с)
 
Видим.   Явления Облачность Т
(С)
Тd
(С)
f
(%)
Тe
(С)
Тes
(С)
Комфортность P
(гПа)
Po
(гПа)
Тmin
(С)
Tmax
(С)
R
(мм)
R24
(мм)
S
(см)
12 15.11 штиль 0 3000 м мгла ясно +5.0 +3.9 93 +4 +4 1019.3 771.2 +4.8 +18.8
15 15.11 Ю 1 6000 м мгла ясно +10.6 +5.8 72 +10 +15 1021.9 772.4
18 15.11 штиль 0 6000 м мгла ясно +19.8 +7.8 46 +21 +38 комфорт 1018.6 771.3 +4.4 +20.5
21 15.11 С 2 6000 м мгла ясно +21.0 +8.6 45 +23 +31 комфорт 1012.4 769.2
00 16.11 С 2 6000 м мгла ясно +17.8 +8.3 54 +18 +18 1010.0 769.8 +4.4 +23.0
03 16.11 ЮВ 1 4000 м мгла ясно +11.8 +1.9 51 +12 +12 1011.5 771.9
06 16.11 В 1 4000 м мгла ясно +8.4 +4.3 75 +8 +8 1014.6 772.8 +4.4 +18.8
12 16.11 Ю 1 4000 м мгла ясно +3.2 -2.1 68 +2 +2 1021.5 772.4 +3.0
15 16.11 Ю 1 6000 м мгла ясно +9.6 +0.9 55 +9 +14 1024.3 773.3
18 16.11 С 2
{7}
6000 м мгла ясно +19.8 +1.0 28 +21 +33 комфорт 1021.0 772.4 +3.0 +20.8
21 16.11 СВ 2 6000 м мгла ясно +20.8 +7.1 41 +23 +30 комфорт 1014.3 770.0
00 17.11 СВ 2 6000 м мгла 3/3 1000 м
[Cu med, cong]
+16.0 +11.1 73 +16 +16 1011.4 770.3 +3.0 +21.5
03 17.11 СВ 2 4000 м мгла ясно +12.2 +6.5 68 +11 +11 1013.0 772.6
06 17.11 ЮЗ 1 4000 м мгла ясно +8.8 +6.2 84 +8 +8 1015.8 773.3 +3.0 +21.5
09 17.11 Ю 1 4000 м мгла ясно +5.4 +4.3 93 +4 +4 1018.4 772.7
12 17.11 В 1 4000 м мгла ясно +3.2 +1.2 87 +2 +2 1021.4 772.4 +3.0 +21.5
15 17.11 ЮЗ 1 6000 м мгла ясно +9.0 +2.8 65 +9 +13 1024.6 773.5
18 17.11 Ю 2 6000 м мгла ясно +22.0 +3.0 29 +22 +34 комфорт 1020.9 772.4 +2.6 +22.8
21 17.11 СВ 2 6000 м мгла ясно +22.2 +3.3 29 +22 +30 комфорт 1013.8 769.9
00 18.11 СВ 2 6000 м мгла ясно +18.8 +6.8 46 +20 +20 1009.2 769.4 +2.6 +23.5
03 18.11 В 1 4000 м мгла ясно +14.5 +0.2 38 +15 +15 1010.1 771.1
09 18.11 З 1 4000 м мгла ясно +5.8 +2.0 77 +5 +5 1013.9 770.8
12 18.11 ЮЗ 1 4000 м мгла ясно +3.2 +0.4 82 +2 +2 1018.4 770.8 +3.0 +23.5
15 18.11 ЮЗ 1 6000 м мгла ясно +9.5 +4.1 69 +9 +13 1021.4 771.4
18 18.11 СЗ 1 6000 м мгла ясно +20.5 +6.0 39 +22 +37 комфорт 1018.4 770.7 +3.0 +21.5
21 18.11 С 2 6000 м мгла ясно +23.8 +3.7 27 +23 +31 комфорт 1011.2 768.3
00 19.11 СВ 2 6000 м мгла ясно +20.0 +2.1 30 +21 +21 комфорт 1007.9 768.9 +3.0 +25.5
12 19.11 СВ 1 3000 м мгла 3/3 480 м
[St]
+10.6 +6.9 78 +10 +10 1014.4 772.2 +10.4
15 19.11 СВ 2
{9}
6000 м мгла 6/6 700 м
[Sc]
+11.8 +6.4 69 +11 +12 1017.2 773.1
18 19.11 СВ 2 4000 м дымка 9/9 300 м
[Sc]
+11.8 +8.6 81 +11 +12 1018.4 773.1 0.0
21 19.11 СВ 3 4000 м дымка 9/9 720 м
[Sc]
+13.8 +8.0 68 +13 +13 1015.3 770.8
00 20.11 СВ 2 5000 м мгла 6/6 300 м
[Sc]
+11.6 +7.7 77 +11 +11 1015.5 771.1 +10.0 +15.5
12 20.11 Ю 1 3000 м дымка 3/3 100 м
[St]
+4.0 +2.9 93 +2 +2 1020.7 771.3 +3.8 +15.5
15 20.11 ЮЗ 1 6000 м мгла ясно +8.4 +4.9 79 +8 +12 1023.3 772.4
18 20.11 Ю 1 6000 м мгла 3/3 1380 м
[Sc]
+19.4 +8.4 49 +21 +31 комфорт 1020.1 771.5 +3.0 +20.0
21 20.11 СЗ 3 6000 м мгла 3/3 1380 м
[Sc]
+20.2 +8.9 48 +22 +26 комфорт 1013.5 769.1
00 21.11 СВ 2 6000 м мгла 1/1 1000 м
[Sc]
+17.0 +8.5 57 +17 +17 1009.9 768.8 +3.0 +21.0
03 21.11 С 1 4000 м мгла ясно +14.0 +5.0 55 +15 +15 1009.7 770.3
06 21.11 ЮЗ 1 4000 м мгла ясно +9.6 +5.1 74 +9 +9 1011.2 770.4 +3.0 +21.0
09 21.11 З 1 4000 м мгла ясно +7.2 +3.1 75 +6 +6 1013.0 770.1
12 21.11 штиль 0 4000 м мгла ясно +4.9 +2.8 86 +4 +4 1016.1 769.6 +4.7 +21.0
15 21.11 штиль 0 6000 м мгла ясно +10.1 +2.7 60 +10 +14 1019.1 770.5
18 21.11 Ю 2 6000 м мгла 3/3 1500 м
[Cu hum]
+20.8 +6.3 39 +22 +31 комфорт 1016.0 769.5 +4.2 +21.4
21 21.11 СЗ 3 6000 м мгла 3/3 1500 м
[Cu hum]
+21.0 +7.2 41 +23 +27 комфорт 1010.2 767.5
00 22.11 СЗ 2 6000 м мгла 3/3 1500 м
[Cu hum]
+20.0 +8.2 47 +22 +22 комфорт 1006.5 767.4 +4.2 +22.2
03 22.11 СЗ 1 4000 м мгла 4/0
[As op]
+15.5 +5.8 52 +16 +16 1006.9 769.2
06 22.11 З 1 4000 м мгла 4/0
[Cs]
+10.6 +5.0 68 +10 +10 1009.4 769.9 +4.2 +22.2

 

Местоположение метеостанции Pachuca (Мексика): широта 20.13 долгота -98.75 высота над уровнем моря 2435 м.

В архиве по умолчанию представлена погода в Pachuca за последнюю неделю. Архивные данные за месяц целиком и за предыдущие месяцы, начиная с января 2011 года, Вы можете получить, выбрав интересующий диапазон дат из раскрывающегося списка и нажав кнопку "Ввод!".

Внимание! Время в таблицах - всемирное. Для получения местного времени необходимо прибавить поправку, которая в Pachuca равна -6 ч.

Смотрите также архив погоды в соседних городах и на ближайших метеорологических станциях:

Погода в Tulancingo (Мексика) (40 км)
Погода в Mexico City (Мексика) (93 км)
Погода в Institute of Geography (Мексика) (101 км)
Погода в Tlaxcala (Мексика) (104 км)
Погода в Tlaxcala Airport (Мексика) (106 км)
Погода в Matlapa (Мексика) (133 км)
Погода в Puebla (Мексика) (135 км)
Погода в Toluca (Мексика) (136 км)
Погода в Cuernavaca (Мексика) (148 км)
Погода в Zacatepec (Мексика) (165 км)

Пояснения к столбцам:

Ветер - указаны скорость ветра в м/с - средняя за 10 мин, порывы в срок и между сроками (в фигурных скобках) и направление, откуда дует ветер: С - северный, СВ - северо-восточный, В - восточный, ЮВ - юго-восточный, Ю - южный, ЮЗ - юго-западный, З - западный, СЗ - северо-западный.
Видимость - горизонтальная дальность видимости в метрах или километрах. При видимости от 1 до 10 км при отсутствии осадков обычно наблюдается дымка, при ухудшении видимости до 1 км и менее - туман. В сухую погоду видимость может ухудшаться дымом, пылью или мглою.
Явления - указаны атмосферные явления, наблюдавшиеся в срок или в последний час перед сроком; фигурными скобками обозначены явления, наблюдавшиеся между сроками (за 1-3 часа до срока); квадратными скобками обозначены град или гололедные отложения с указанием их диаметра в мм.
Облачность - указаны через наклонную черту общая и нижняя облачность в баллах и высота нижней границы облаков в метрах; квадратными скобками обозначены формы облаков: Ci - перистые, Cs - перисто-слоистые, Cc - перисто-кучевые, Ac - высококучевые, As - высокослоистые, Sc - слоисто-кучевые, Ns - слоисто-дождевые, Cu - кучевые, Cb - кучево-дождевые. Подробнее классификацию облаков см. в Атласе облаков (PDF).
T - Температура воздуха - температура, измеренная на высоте 2 м над землей.
Td - Температура точки росы - температура, при понижении до которой содержащийся в воздухе водяной пар достигнет насыщения.
f - Относительная влажность воздуха - влажноcть воздуха, измеренная на высоте 2 м над землей.
Te - Эффективная температура - температура, которую ощущает одетый по сезону человек в тени. Характеристика душности погоды. При расчете учитывается влияние влажности воздуха и скорости ветра на теплоощущения человека.
Tes - Эффективная температура на солнце - температура, которую ощущает человек, с поправкой на солнечный нагрев. Характеристика знойности погоды. Зависит от высоты солнца над горизонтом, облачности и скорости ветра. Ночью, в пасмурную погоду, а также при ветре 12 м/с и более поправка равна нулю.
P - Атмосферное давление - приведенное к уровню моря атмосферное давление.
Po - Атмосферное давление - измеренное на уровне метеостанции атмосферное давление.
Tmin - Минимальная температура - минимум температуры воздуха на высоте 2 м над землей.
Tmax - Максимальная температура - максимум температуры воздуха на высоте 2 м над землей.
R - Количество осадков - Количество выпавших осадков за период времени, мм. При наведении курсора мыши на число - период времени, за который выпало указанное количество осадков.
R24 - Количество осадков - Количество выпавших осадков за 24 часа, мм.
S - Снежный покров - Высота снежного покрова, см. При наведении курсора мыши на число - состояние снежного покрова и степень покрытия местности в баллах.